ARIANE 5 R/B, 54745

Orbit data source: Space-Track

ARIANE 5 R/B, 54745 is space debris in HEO originally from a launch on Tue, 13 Dec 2022 UTC launched from the French Guiana (FRGUI). Debris objects in space refer to the collection of defunct objects orbiting the Earth. Examples of debris include non-operational satellites, rocket bodies, and fragments generated from explosions, collisions, or faulty payload assembly.

Loading next visibility...
Identifier
54745, 2022-170E
Orbit
HEO
Last TLE update
22 hours ago
Origin
Manufacturer
ArianeGroup
Mission
Spacecraft
Bus & Motor
ESC-A, Unknown motor
Mass
~5,000 kg wet, ~5,000 kg dry
Launch date (UTC)
2022-12-13 (3 years ago)
Launch vehicle
Unknown
Launch site
French Guiana (FRGUI)
Object type
Payload
Rocket body
Debris
Shape & HBR
Cyl + 1 Nozzle, 3.5 m
Radar Cross Section
41.627 m², Large (>1 m²)

Expand to show TLE details & history

TLE from 22 hours ago
0 ARIANE 5 R/B
1 54745U 22170E   25199.03933843  .00058859 -33661-6  16447-2 0  9991
2 54745   5.9019 134.4146 6933275 334.4026   3.4174  2.77922309 23567
Epoch: 2025-07-18T00:56Z
TLE epoch observation values (Epoch: 2025-07-18T00:56:38.84Z)
Latitude
-0.00036°
Longitude
-175.95609°
Altitude
431.623 km
Speed
9.92 km/s
True Right ascension
08h 57m 12s
True Declination
0° 00' 01"
Sunlit
Object was in daylight at epoch
Visualization orbit readout
Latitude
1.41412°
Longitude
-10.23654°
Altitude
28,449.224 km
Speed
2.057 km/s
Apparent Right ascension
20h 27m 05s
Apparent Declination
-4° 55' 37"
Sunlit
Object is in daylight
Visualization observer readout
Local Sidereal Time
12:13:51
Azimuth
71.092° E
Elevation
-28.343°
Doppler factor
1
Orbital elements
Apogee altitude
29,815.95 km
Perigee altitude
176.845 km
Semi-major axis
21,374.534 km
Eccentricity
0.69333
Inclination
5.9019°
RAAN
134.4146°
Arg. of periapsis
334.4026°
True anomaly
25.47877°
Mean anomaly
3.4174°
Eccentric anomaly
10.99135°
Mean motion
0.69454 °/min
Orbital period
518.33 mins
BSTAR
0.0016447
Loading maneuver chart data...
Loading SW <> Apogee altitude chart data...
Loading historical data...
Loading historical data...
Loading historical data...
Loading historical data...
Loading historical data...
Loading historical data...
Loading historical data...
Other satellites on launch #170 in the year 2022 (2022-12-13 UTC)
|